Погода в Шклове

Россия / Саратовская область     51°21′44″N   44°30′59″E
темп.,
°C
ветер,
м/с
пор.,
м/с
влажн.,
%
обл.,
%
осадки,
мм/ч
давл.,
гПа
погр.,
м
19 мая, ср
ср1901:00+17вюв335690 0.0 100829
04:00+15ю47715 0.0 1009133
07:00+16юз46898 0.0 1010264
10:00+20з22650 0.0 1011689
13:00+24вюв35480 0.0 10101282
16:00+27юв6838100 0.0 10091752
19:00+22ю3861100 0.0 1008207
22:00+14зюз71390100 1.3 1010416
20 мая, чт
чт2001:00+13ю239392 0.9 1011192
04:00+13ююз2493100 1.2 1011232
07:00+13ю3689100 0.0 1011381
10:00+16ююз5670100 0.0 1011991
13:00+18ююз6765100 0.6 10111247
16:00+18ююз786475 1.4 10111365
19:00+17юз687219 0.5 1011912
22:00+13ююз49871 0.6 1012249
21 мая, пт
пт2101:00+11юз49933 0.0 1014210
04:00+11ююз49965 0.0 1014210
07:00+13юз410873 0.0 1016320
10:00+18юз596566 0.0 10171068
13:00+21юз6854100 0.0 10171459
16:00+23юз46519 0.0 10161681
19:00+21ююв2263100 0.0 101642
22:00+18всв1173100 0.1 101811
22 мая, сб
сб2201:00+18св3475100 0.0 101771
04:00+16всв51182100 0.0 1017233
07:00+16в510809 0.0 1017319
10:00+22вюв61054100 0.0 1016683
13:00+26ююв71040100 0.0 10151524
16:00+28ю5104099 0.0 10142053
19:00+27ююв1152100 0.0 101315
22:00+22вюв3359100 0.0 101324
23 мая, вс
вс2301:00+20юв225377 0.0 101318
04:00+19вюв2247100 0.0 101319
07:00+19вюв3453100 0.0 101452
10:00+25юв61246100 0.0 1013515
13:00+29вюв81140100 0.0 10121039
16:00+31юв7113966 0.0 10101356
19:00+27в51250100 0.0 1008294
22:00+22юв51355100 0.0 1008202